Location: Goll?ig?dem
(16.6773°N, 80.7332°E)
Time: 19:26:11
(UTC+00:00)

Nadezhda 4 Rocket - Pass Details

Date: 19 May 2025
Orbit: 950 x 990 km, 82.9° (Epoch: 22 June)

Event Time Altitude Azimuth Distance (km) Brightness Sun altitude
Exits shadow 22:57:43 - 197° (SSW) 2,722 5.9 -15.5°
Reaches altitude 10° 22:57:51 10° 197° (SSW) 2,672 5.9 -15.5°
Maximum altitude 23:03:49 57° 275° (W) 1,110 4.0 -14.2°
Drops below altitude 10° 23:09:47 10° 353° (N) 2,669 6.5 -12.9°
Sets 23:12:20 0° 357° (N) 3,616 7.3 -12.4°
